Location: Unspecified
(42.3650°N, 71.1030°W)
Time: 22:40:55
(UTC+00:00)

Courier 1B Rocket - Pass Details

Date: 03 July 2024
Orbit: 920 x 1201 km, 28.2° (Epoch: 14 July)

Event Time Altitude Azimuth Distance (km) Brightness Sun altitude
Exits shadow 07:38:42 10° 180° (S) 2,672 6.8 -13.9°
Drops below altitude 10° 07:38:50 10° 179° (S) 2,687 6.9 -13.8°
Sets 07:43:32 0° 150° (SSE) 3,695 7.8 -13.3°
